Long Beach, Daugherty Field, Airport Long Beach US
ICAO: KLGB
IATA: LGB
Category: Medium
Scheduled Services: Yes

Elevation: 60 ft
TransAlt. 18000 ft.

Airport Communications:
SOCAL APP:124.65
ATIS:127.75
CLNC DEL:118.15
CTAF:119.4
SOCAL DEP:127.2
GND:133
TWR:119.4
UNICOM:122.95

KLGB Zoom In..

Runways:

(A) RW 07L length 6191 ft width 150 ft
---- / hdg 76

(B) RW 07R length 5421 ft width 150 ft
---- / hdg 76

(C) RW 12 length 10003 ft width 200 ft
---- / hdg 121

(D) RW 16L length 3330 ft width 75 ft
---- / hdg 166

(E) RW 16R length 4470 ft width 75 ft
---- / hdg 166

(F) RW 25L length 5421 ft width 150 ft
---- / hdg 256

(G) RW 25R length 6191 ft width 150 ft
---- / hdg 256

(H) RW 30 length 10003 ft width 200 ft
ILS 110.30 / hdg 301

(I) RW 34L length 4470 ft width 75 ft
---- / hdg 346

(J) RW 34R length 3330 ft width 75 ft
---- / hdg 346

Location; KLGB
Day. 18 / Time. 13.53 Zulu
* Altimeter: 30.05
* Temperature: 22° c. 71.6°f.
* Wind from: 000° Speed 00 kn.
Dewpoint: 19° c.
Visibility: 7 Statute Miles.
Clouds: Overcast 1000 ft.

KLGB 181353Z 00000KT 7SM OVC010 22/19 A3005 RMK AO2 SLP173 T02220194


Wind - Calm.

 
 
jpsmedia.com for Web Design worldairports.se 2018   terms of use